Weather in Uspenka

Ukraine / Sumi District     51°07′25″N   33°43′51″E
temp.,
°C
wind,
m/s
gust,
m/s
humid.,
%
clouds,
%
prec.,
mm/h
press.,
hPa
HPBL,
m
18 september, sat
sat1800:00+11e71383100 2.6 1012391
03:00+11ese71478100 2.7 1011383
06:00+11se61387100 1.8 1009364
09:00+11ese71396100 9.5 1009404
12:00+12se91791100 1.2 1009647
15:00+14se81579100 2.4 1008673
18:00+13se81789100 5.1 1008750
21:00+15sse91795100 13.1 1007742
19 september, sun
sun1900:00+13sse51195100 4.2 1008654
03:00+13se41097100 11.0 1007604
06:00+13sse4798100 3.8 1007498
09:00+14w469583 3.9 1007396
12:00+16wsw447280 0.1 1008979
15:00+17wsw3463100 0.1 10081160
18:00+16ene2269100 0.0 100757
21:00+13s3584100 0.6 1008187
20 september, mon
mon2000:00+13sse3595100 1.7 1007223
03:00+12s3695100 5.1 1006367
06:00+10wsw4694100 1.0 1006430
09:00+9wsw3591100 2.5 1007435
12:00+9sw5790100 0.4 1008520
15:00+8sw5891100 0.8 1008553
18:00+8sw4887100 0.0 1008579
21:00+8ssw51089100 0.1 1008585
21 september, tue
tue2100:00+9sw5895100 0.6 1008679
03:00+8w61096100 0.9 1009542
06:00+7w61095100 0.0 1010670
09:00+7w6991100 0.1 1011757
12:00+6w6991100 0.1 1012949
15:00+6w5889100 0.2 1013972
18:00+5wnw5893100 0.3 1014897
21:00+4wnw5997100 0.9 1015730
22 september, wed
wed2200:00+4wnw6996100 0.7 1015846
03:00+4wnw61097100 0.9 1015739
06:00+4wnw61097100 0.1 1015628
09:00+4wnw5897100 0.2 1016662
12:00+4wnw5796100 0.2 1016776
15:00+5wnw5792100 0.4 1016851
18:00+5wnw4793100 0.3 1015874
21:00+5wnw4695100 0.8 1015930